Date,TemperatureHighF,TemperatureAvgF,TemperatureLowF,DewpointHighF,DewpointAvgF,DewpointLowF,HumidityHigh,HumidityAvg,HumidityLow,PressureMaxIn,PressureMinIn,WindSpeedMaxMPH,WindSpeedAvgMPH,GustSpeedMaxMPH,PrecipitationSumIn
2013-8-1,87.5,77.6,73.4,80.1,75.1,72.5,98,92,76,30.00,29.90,8,0,16,0.42
2013-8-2,92.0,81.0,71.5,81.2,75.8,70.6,98,86,61,30.01,29.92,3,0,8,0.01
2013-8-3,91.6,82.2,74.1,80.4,76.6,73.2,98,84,58,30.05,29.96,9,0,9,0.01
2013-8-4,93.6,81.4,74.9,81.9,76.9,72.7,97,87,62,30.04,29.94,10,0,19,0.26
2013-8-5,90.8,80.7,73.4,78.7,75.1,71.8,98,84,60,30.02,29.94,8,0,13,0.01
2013-8-6,91.4,78.9,70.8,80.3,74.6,69.5,98,87,67,29.99,29.91,13,0,17,0.24
2013-8-7,91.7,80.0,71.1,81.1,75.3,70.5,98,87,63,29.99,29.90,4,0,9,0.01
2013-8-8,90.3,79.0,73.4,82.0,75.6,72.5,98,90,68,30.00,29.93,9,0,14,0.36
2013-8-9,91.3,79.0,72.8,80.1,75.5,72.2,99,90,64,30.06,29.95,11,0,19,0.03
2013-8-10,90.2,77.9,71.9,81.6,74.9,71.3,99,91,68,30.11,30.03,12,0,16,0.05
2013-8-11,91.5,80.1,70.8,79.7,74.7,70.0,99,85,59,30.15,30.05,4,0,9,0.03
2013-8-12,93.6,78.9,71.8,79.6,74.4,70.3,97,88,60,30.12,30.01,28,0,28,0.64
2013-8-13,91.8,78.3,73.1,80.3,75.3,72.5,98,91,66,30.02,29.91,11,0,16,0.36
2013-8-14,88.0,78.7,73.5,78.9,75.3,72.6,98,90,72,29.94,29.86,5,0,10,0.16
2013-8-15,87.2,76.8,72.5,78.7,74.2,71.9,98,92,73,29.97,29.90,6,0,11,1.30
2013-8-16,81.8,73.2,69.6,75.4,71.5,69.0,99,94,79,30.03,29.93,4,0,8,0.01
2013-8-17,72.0,70.1,68.7,71.4,69.5,68.1,98,98,97,30.05,29.97,5,0,8,0.92
2013-8-18,81.8,72.4,69.3,79.2,71.4,68.7,99,97,87,30.09,30.02,8,0,15,0.45
2013-8-19,89.2,76.8,69.2,79.9,73.7,68.6,99,91,66,30.07,29.97,10,0,12,0.01
2013-8-20,86.0,74.2,70.4,77.7,72.4,69.7,98,94,75,30.11,29.99,8,0,14,0.83
2013-8-21,90.9,76.5,69.5,79.7,73.0,68.9,99,90,63,30.16,30.06,6,0,18,0.55
2013-8-22,88.1,77.0,69.5,78.5,73.3,68.9,98,89,68,30.12,29.99,7,0,15,0.01
2013-8-23,87.8,77.2,68.8,77.8,72.4,67.9,98,86,66,30.05,29.96,3,0,11,0.01
2013-8-24,89.1,78.3,69.5,77.4,73.0,68.4,98,85,65,30.16,30.00,13,0,22,0.90
2013-8-25,87.1,76.5,69.4,76.0,71.2,65.1,98,85,65,30.22,30.14,7,0,13,0.04
2013-8-26,85.3,74.8,63.3,70.9,65.2,61.2,94,74,51,30.23,30.10,7,0,12,0.00
2013-8-27,87.8,75.0,64.1,72.9,68.4,62.9,97,81,57,30.13,30.01,3,0,8,0.00
2013-8-28,89.6,77.8,67.1,75.6,70.2,66.0,97,80,53,30.07,29.98,0,0,6,0.00
2013-8-29,91.5,79.2,67.1,77.0,72.4,65.6,96,81,59,30.05,29.94,2,0,8,0.00
2013-8-30,93.4,81.6,73.0,79.5,74.9,71.1,95,81,60,30.00,29.88,6,0,10,0.07
2013-8-31,92.0,80.8,73.0,80.9,75.9,72.1,98,86,63,29.94,29.84,6,0,10,0.01